WZZ1638 URKK-LHBP

Flight info

Callsign WZZ1638
Flight time 2h 18m
Altitude 37000
Route AGIDA W70 ANAKA B491 PALER DCT ESALO L61 BAGRI/N0444F380 DCT EVRIK DCT PARAK
Aircraft A20N/M-SDE2E3FGHIRWXY/LB1

Departure

Time 2026-05-04 16:28
Airport Krasnodar Pashkovsky International Airport (URKK)

Arrival

Time 2026-05-04 18:46
Airport Budapest Liszt Ferenc International Airport (LHBP)
Time Latitude Longitude Altitude Speed Heading
2026-05-04 16:02 45.03489 39.14431 110 ft 0 kts 330°
2026-05-04 16:20 45.03478 39.14439 107 ft 0 kts 331°
2026-05-04 16:21 45.03620 39.14656 114 ft 14 kts 60°
2026-05-04 16:22 45.03691 39.14832 117 ft 12 kts 59°
2026-05-04 16:22 45.03825 39.15299 105 ft 19 kts 113°
2026-05-04 16:23 45.03739 39.15860 104 ft 19 kts 89°
2026-05-04 16:24 45.03448 39.16415 103 ft 19 kts 143°
2026-05-04 16:25 45.03229 39.16653 102 ft 20 kts 143°
2026-05-04 16:26 45.02790 39.17131 104 ft 19 kts 143°
2026-05-04 16:26 45.02684 39.17248 105 ft 7 kts 141°
2026-05-04 16:27 45.02762 39.17582 107 ft 50 kts 52°
2026-05-04 16:28 45.04489 39.20740 935 ft 174 kts 52°
2026-05-04 16:28 45.06623 39.24701 3143 ft 188 kts 50°
2026-05-04 16:29 45.09226 39.31887 3979 ft 226 kts 102°
2026-05-04 16:30 45.05794 39.36664 5326 ft 243 kts 142°
2026-05-04 16:31 45.03043 39.39440 7076 ft 252 kts 154°
2026-05-04 16:31 44.98373 39.36679 9355 ft 283 kts 232°
2026-05-04 16:32 44.94796 39.29939 11791 ft 299 kts 231°
2026-05-04 16:33 44.92170 39.25097 12903 ft 324 kts 231°
2026-05-04 16:33 44.89477 39.19949 14548 ft 330 kts 238°
2026-05-04 16:34 44.87790 39.13999 16370 ft 327 kts 246°
2026-05-04 16:34 44.86875 39.11006 16738 ft 342 kts 244°
2026-05-04 16:35 44.83864 39.01316 18255 ft 367 kts 246°
2026-05-04 16:35 44.80845 38.91324 20126 ft 376 kts 248°
2026-05-04 16:36 44.79831 38.87958 20707 ft 379 kts 248°
2026-05-04 16:36 44.78262 38.80879 21861 ft 384 kts 265°
2026-05-04 16:37 44.79183 38.73462 23066 ft 391 kts 288°
2026-05-04 16:37 44.80118 38.69864 23621 ft 394 kts 288°
2026-05-04 16:37 44.82031 38.62616 24662 ft 399 kts 288°
2026-05-04 16:38 44.83949 38.55268 25661 ft 403 kts 288°
2026-05-04 16:39 44.86837 38.44105 27037 ft 409 kts 288°
2026-05-04 16:39 44.88778 38.36568 27846 ft 413 kts 287°
2026-05-04 16:40 44.90762 38.28806 28320 ft 422 kts 287°
2026-05-04 16:40 44.92734 38.21087 29259 ft 417 kts 287°
2026-05-04 16:41 44.94679 38.13448 30135 ft 413 kts 286°
2026-05-04 16:41 44.97568 38.02034 31275 ft 409 kts 286°
2026-05-04 16:42 45.00345 37.90626 32217 ft 408 kts 284°
2026-05-04 16:43 45.01660 37.82877 32782 ft 406 kts 279°
2026-05-04 16:43 45.02576 37.75021 33359 ft 405 kts 278°
2026-05-04 16:43 45.03015 37.71088 33630 ft 405 kts 278°
2026-05-04 16:44 45.04753 37.55356 34503 ft 409 kts 278°
2026-05-04 16:45 45.05618 37.47441 34860 ft 411 kts 278°
2026-05-04 16:46 45.06920 37.35430 35307 ft 416 kts 278°
2026-05-04 16:46 45.07788 37.27331 35594 ft 418 kts 278°
2026-05-04 16:47 45.08658 37.19168 35862 ft 421 kts 278°
2026-05-04 16:47 45.09529 37.10955 35866 ft 425 kts 278°
2026-05-04 16:48 45.11306 36.94294 35870 ft 433 kts 278°
2026-05-04 16:49 45.13063 36.77376 35871 ft 435 kts 278°
2026-05-04 16:50 45.14782 36.60386 35872 ft 435 kts 278°
2026-05-04 16:51 45.15629 36.47607 35873 ft 435 kts 273°
2026-05-04 16:52 45.16204 36.30533 35874 ft 435 kts 272°
2026-05-04 16:53 45.16611 36.17697 35873 ft 435 kts 272°
2026-05-04 16:54 45.17131 36.00561 35872 ft 436 kts 272°
2026-05-04 16:55 45.17864 35.74852 35872 ft 435 kts 272°
2026-05-04 16:56 45.18432 35.53453 35872 ft 436 kts 272°
2026-05-04 16:57 45.18753 35.40619 35872 ft 435 kts 272°
2026-05-04 16:58 45.19159 35.23481 35872 ft 435 kts 272°
2026-05-04 17:00 45.19718 34.97751 35871 ft 436 kts 272°
2026-05-04 17:01 45.20142 34.76261 35871 ft 438 kts 272°
2026-05-04 17:02 45.20456 34.58992 35873 ft 439 kts 272°
2026-05-04 17:03 45.20674 34.46053 35884 ft 438 kts 272°
2026-05-04 17:03 45.20876 34.33106 35861 ft 438 kts 271°
2026-05-04 17:04 45.21122 34.15833 35825 ft 439 kts 271°
2026-05-04 17:05 45.21342 33.98545 35817 ft 438 kts 271°
2026-05-04 17:06 45.21490 33.85617 35818 ft 439 kts 271°
2026-05-04 17:07 45.21610 33.74115 35818 ft 438 kts 271°
2026-05-04 17:07 45.21705 33.64019 35817 ft 439 kts 271°
2026-05-04 17:08 45.21814 33.51090 35817 ft 438 kts 271°
2026-05-04 17:09 45.21880 33.42412 35817 ft 438 kts 271°
2026-05-04 17:09 45.21937 33.33836 35819 ft 438 kts 270°
2026-05-04 17:10 45.22053 33.12219 35817 ft 438 kts 270°
2026-05-04 17:11 45.22087 33.03604 35819 ft 438 kts 271°
2026-05-04 17:12 45.22125 32.90667 35840 ft 436 kts 271°
2026-05-04 17:13 45.22164 32.69296 35869 ft 435 kts 271°
2026-05-04 17:14 45.22166 32.52127 35888 ft 435 kts 271°
2026-05-04 17:15 45.22149 32.39320 35949 ft 435 kts 271°
2026-05-04 17:16 45.22104 32.22169 36016 ft 435 kts 271°
2026-05-04 17:17 45.22033 32.05053 36032 ft 435 kts 271°
2026-05-04 17:18 45.21936 31.87935 36035 ft 434 kts 271°
2026-05-04 17:19 45.21815 31.70839 36035 ft 434 kts 271°
2026-05-04 17:20 45.21668 31.53690 36035 ft 434 kts 271°
2026-05-04 17:20 45.21540 31.40898 36036 ft 434 kts 271°
2026-05-04 17:21 45.21348 31.23791 36035 ft 434 kts 270°
2026-05-04 17:22 45.21242 31.15239 36035 ft 435 kts 270°
2026-05-04 17:23 45.21011 30.98010 36034 ft 440 kts 270°
2026-05-04 17:24 45.20818 30.84996 36034 ft 442 kts 270°
2026-05-04 17:25 45.20535 30.67607 36033 ft 441 kts 270°
2026-05-04 17:26 45.20228 30.50282 36036 ft 441 kts 270°
2026-05-04 17:27 45.19804 30.28542 36034 ft 441 kts 269°
2026-05-04 17:28 45.19430 30.11133 36035 ft 441 kts 269°
2026-05-04 17:29 45.19117 29.85090 36029 ft 440 kts 278°
2026-05-04 17:31 45.23337 29.64325 36035 ft 440 kts 288°
2026-05-04 17:32 45.27557 29.45134 36036 ft 440 kts 288°
2026-05-04 17:33 45.31148 29.28546 36036 ft 440 kts 287°
2026-05-04 17:34 45.34714 29.11916 36035 ft 440 kts 287°
2026-05-04 17:35 45.39137 28.91157 36038 ft 436 kts 287°
2026-05-04 17:36 45.40876 28.82944 36038 ft 432 kts 286°
2026-05-04 17:36 45.42595 28.74789 36036 ft 428 kts 286°
2026-05-04 17:37 45.44288 28.66682 36034 ft 428 kts 286°
2026-05-04 17:37 45.45977 28.58584 36035 ft 427 kts 286°
2026-05-04 17:38 45.47654 28.50526 36035 ft 428 kts 286°
2026-05-04 17:38 45.49345 28.42365 36035 ft 428 kts 286°
2026-05-04 17:39 45.51854 28.30191 36034 ft 428 kts 285°
2026-05-04 17:39 45.53518 28.22055 36035 ft 428 kts 285°
2026-05-04 17:40 45.55188 28.13879 36033 ft 428 kts 285°
2026-05-04 17:40 45.56834 28.05789 36036 ft 428 kts 285°
2026-05-04 17:41 45.58488 27.97618 36035 ft 428 kts 285°
2026-05-04 17:41 45.60139 27.89435 36034 ft 427 kts 285°
2026-05-04 17:42 45.61777 27.81288 36034 ft 427 kts 285°
2026-05-04 17:42 45.63410 27.73146 36032 ft 428 kts 285°
2026-05-04 17:43 45.65035 27.64986 36034 ft 428 kts 285°
2026-05-04 17:43 45.66662 27.56787 36034 ft 427 kts 285°
2026-05-04 17:44 45.68286 27.48577 36032 ft 428 kts 285°
2026-05-04 17:44 45.69899 27.40399 36034 ft 428 kts 285°
2026-05-04 17:45 45.71503 27.32206 36034 ft 428 kts 285°
2026-05-04 17:45 45.73091 27.24036 36034 ft 428 kts 285°
2026-05-04 17:46 45.74684 27.15834 36033 ft 428 kts 285°
2026-05-04 17:46 45.76272 27.07621 36033 ft 428 kts 284°
2026-05-04 17:47 45.77861 26.99397 36034 ft 430 kts 284°
2026-05-04 17:47 45.79443 26.91175 36036 ft 432 kts 283°
2026-05-04 17:48 45.81042 26.82803 36033 ft 435 kts 283°
2026-05-04 17:48 45.82631 26.74434 36037 ft 436 kts 283°
2026-05-04 17:49 45.84206 26.66097 36035 ft 435 kts 283°
2026-05-04 17:49 45.85786 26.57733 36030 ft 435 kts 283°
2026-05-04 17:50 45.87357 26.49370 36033 ft 435 kts 283°
2026-05-04 17:50 45.88922 26.40989 36034 ft 435 kts 283°
2026-05-04 17:51 45.90478 26.32619 36034 ft 435 kts 282°
2026-05-04 17:51 45.92023 26.24258 36034 ft 434 kts 282°
2026-05-04 17:52 45.93574 26.15842 36035 ft 436 kts 282°
2026-05-04 17:52 45.94685 26.09775 36035 ft 435 kts 282°
2026-05-04 17:53 45.96225 26.01364 36034 ft 434 kts 282°
2026-05-04 17:53 45.97755 25.92953 36032 ft 435 kts 283°
2026-05-04 17:54 45.99274 25.84581 36031 ft 435 kts 282°
2026-05-04 17:54 46.00791 25.76171 36032 ft 436 kts 282°
2026-05-04 17:55 46.02307 25.67745 36036 ft 436 kts 282°
2026-05-04 17:55 46.03814 25.59318 36033 ft 435 kts 282°
2026-05-04 17:56 46.05312 25.50900 36035 ft 434 kts 282°
2026-05-04 17:56 46.06803 25.42477 36031 ft 435 kts 282°
2026-05-04 17:57 46.08292 25.34034 36033 ft 436 kts 282°
2026-05-04 17:57 46.09768 25.25602 36035 ft 435 kts 282°
2026-05-04 17:58 46.11267 25.17126 36033 ft 435 kts 282°
2026-05-04 17:58 46.12746 25.08759 36034 ft 435 kts 282°
2026-05-04 17:59 46.14216 25.00314 36034 ft 433 kts 281°
2026-05-04 18:00 46.16399 24.87634 36037 ft 434 kts 281°
2026-05-04 18:00 46.17836 24.79235 36031 ft 434 kts 281°
2026-05-04 18:01 46.19278 24.70774 36035 ft 434 kts 281°
2026-05-04 18:01 46.20703 24.62351 36034 ft 434 kts 281°
2026-05-04 18:02 46.22840 24.49637 36035 ft 435 kts 282°
2026-05-04 18:02 46.24252 24.41201 36037 ft 434 kts 281°
2026-05-04 18:03 46.25661 24.32734 36037 ft 434 kts 281°
2026-05-04 18:03 46.27058 24.24268 36035 ft 433 kts 281°
2026-05-04 18:04 46.28451 24.15804 36035 ft 434 kts 281°
2026-05-04 18:05 46.30533 24.03080 36034 ft 434 kts 281°
2026-05-04 18:05 46.31907 23.94633 36035 ft 433 kts 281°
2026-05-04 18:06 46.33966 23.81914 36050 ft 434 kts 281°
2026-05-04 18:06 46.35329 23.73422 36064 ft 433 kts 281°
2026-05-04 18:07 46.36684 23.64929 36079 ft 434 kts 281°
2026-05-04 18:07 46.38027 23.56488 36085 ft 433 kts 281°
2026-05-04 18:08 46.39379 23.47943 36089 ft 433 kts 281°
2026-05-04 18:08 46.40719 23.39426 36090 ft 434 kts 281°
2026-05-04 18:09 46.43365 23.22441 36088 ft 433 kts 280°
2026-05-04 18:10 46.44682 23.13927 36088 ft 434 kts 280°
2026-05-04 18:10 46.46001 23.05366 36090 ft 434 kts 280°
2026-05-04 18:11 46.47296 22.96871 36087 ft 432 kts 281°
2026-05-04 18:11 46.48579 22.88395 36088 ft 431 kts 283°
2026-05-04 18:12 46.49867 22.79874 36086 ft 434 kts 284°
2026-05-04 18:12 46.51171 22.71281 36088 ft 437 kts 284°
2026-05-04 18:13 46.52472 22.62667 36089 ft 437 kts 284°
2026-05-04 18:14 46.54397 22.49765 36089 ft 437 kts 284°
2026-05-04 18:14 46.55676 22.41121 36089 ft 437 kts 284°
2026-05-04 18:15 46.58200 22.23886 36089 ft 437 kts 284°
2026-05-04 18:16 46.59452 22.15262 36088 ft 438 kts 283°
2026-05-04 18:16 46.60701 22.06624 36089 ft 437 kts 283°
2026-05-04 18:17 46.61945 21.97976 35649 ft 438 kts 283°
2026-05-04 18:17 46.62572 21.93595 35319 ft 439 kts 284°
2026-05-04 18:17 46.63809 21.84912 34671 ft 440 kts 284°
2026-05-04 18:18 46.64426 21.80560 34343 ft 441 kts 283°
2026-05-04 18:18 46.65045 21.76193 34020 ft 442 kts 283°
2026-05-04 18:18 46.65659 21.71829 33693 ft 442 kts 283°
2026-05-04 18:18 46.66275 21.67444 33369 ft 443 kts 283°
2026-05-04 18:19 46.67490 21.58757 32411 ft 441 kts 283°
2026-05-04 18:19 46.68174 21.54398 32150 ft 443 kts 287°
2026-05-04 18:19 46.69109 21.50105 32125 ft 444 kts 291°
2026-05-04 18:20 46.71676 21.41945 32120 ft 444 kts 299°
2026-05-04 18:20 46.74639 21.34036 32118 ft 444 kts 299°
2026-05-04 18:21 46.77601 21.26134 32119 ft 445 kts 299°
2026-05-04 18:21 46.80546 21.18246 32117 ft 444 kts 299°
2026-05-04 18:22 46.83490 21.10339 32118 ft 444 kts 299°
2026-05-04 18:22 46.86410 21.02455 32118 ft 441 kts 300°
2026-05-04 18:23 46.89296 20.94637 31533 ft 432 kts 301°
2026-05-04 18:23 46.90706 20.90814 30804 ft 430 kts 302°
2026-05-04 18:23 46.92136 20.86938 29936 ft 431 kts 302°
2026-05-04 18:24 46.93545 20.83126 28968 ft 434 kts 302°
2026-05-04 18:24 46.94974 20.79262 27939 ft 438 kts 301°
2026-05-04 18:24 46.96424 20.75329 26943 ft 440 kts 301°
2026-05-04 18:24 46.97867 20.71452 26283 ft 433 kts 302°
2026-05-04 18:25 46.99431 20.67743 25676 ft 425 kts 305°
2026-05-04 18:25 47.01041 20.64116 25349 ft 421 kts 305°
2026-05-04 18:25 47.02647 20.60510 25096 ft 420 kts 304°
2026-05-04 18:25 47.04215 20.56960 24848 ft 418 kts 303°
2026-05-04 18:26 47.05784 20.53376 24596 ft 416 kts 303°
2026-05-04 18:26 47.07326 20.49826 24329 ft 415 kts 303°
2026-05-04 18:26 47.08873 20.46254 24016 ft 413 kts 303°
2026-05-04 18:26 47.10417 20.42681 23610 ft 411 kts 303°
2026-05-04 18:27 47.11943 20.39166 23091 ft 408 kts 303°
2026-05-04 18:27 47.13469 20.35654 22531 ft 403 kts 303°
2026-05-04 18:27 47.14956 20.32209 21986 ft 399 kts 302°
2026-05-04 18:27 47.16423 20.28789 21447 ft 396 kts 302°
2026-05-04 18:28 47.17881 20.25382 20906 ft 392 kts 302°
2026-05-04 18:28 47.19325 20.22004 20369 ft 388 kts 302°
2026-05-04 18:28 47.20745 20.18679 19836 ft 384 kts 302°
2026-05-04 18:28 47.22167 20.15344 19303 ft 381 kts 302°
2026-05-04 18:29 47.23560 20.12075 18772 ft 378 kts 302°
2026-05-04 18:29 47.24940 20.08831 18249 ft 374 kts 302°
2026-05-04 18:29 47.26324 20.05574 17723 ft 371 kts 302°
2026-05-04 18:29 47.27666 20.02415 17207 ft 369 kts 302°
2026-05-04 18:30 47.30378 19.96017 16173 ft 364 kts 301°
2026-05-04 18:30 47.31699 19.92895 15665 ft 361 kts 301°
2026-05-04 18:30 47.33026 19.89755 15151 ft 359 kts 301°
2026-05-04 18:31 47.34336 19.86654 14644 ft 357 kts 301°
2026-05-04 18:31 47.35650 19.83539 14134 ft 355 kts 301°
2026-05-04 18:31 47.36950 19.80452 13627 ft 353 kts 301°
2026-05-04 18:31 47.38229 19.77412 13128 ft 351 kts 301°
2026-05-04 18:32 47.39513 19.74359 12628 ft 349 kts 301°
2026-05-04 18:32 47.40787 19.71324 12130 ft 348 kts 301°
2026-05-04 18:32 47.42051 19.68310 11637 ft 346 kts 301°
2026-05-04 18:32 47.43324 19.65276 11144 ft 344 kts 301°
2026-05-04 18:33 47.44561 19.62322 10668 ft 342 kts 301°
2026-05-04 18:33 47.45799 19.59364 10407 ft 330 kts 301°
2026-05-04 18:33 47.46970 19.56557 10279 ft 315 kts 301°
2026-05-04 18:33 47.48095 19.53859 10161 ft 301 kts 300°
2026-05-04 18:34 47.49165 19.51289 10061 ft 288 kts 300°
2026-05-04 18:34 47.50190 19.48823 9979 ft 275 kts 300°
2026-05-04 18:34 47.51186 19.46425 9859 ft 265 kts 300°
2026-05-04 18:34 47.52123 19.44167 9557 ft 263 kts 300°
2026-05-04 18:35 47.53108 19.41788 8844 ft 275 kts 300°
2026-05-04 18:35 47.54109 19.39371 8308 ft 279 kts 300°
2026-05-04 18:35 47.55125 19.36920 7905 ft 278 kts 300°
2026-05-04 18:35 47.56136 19.34479 7498 ft 277 kts 299°
2026-05-04 18:36 47.57139 19.32044 7090 ft 276 kts 298°
2026-05-04 18:36 47.58139 19.29612 6796 ft 274 kts 298°
2026-05-04 18:36 47.59124 19.27219 6673 ft 276 kts 298°
2026-05-04 18:36 47.60129 19.24776 6537 ft 276 kts 298°
2026-05-04 18:37 47.61131 19.22342 6391 ft 276 kts 299°
2026-05-04 18:37 47.62127 19.19922 6235 ft 276 kts 299°
2026-05-04 18:37 47.63129 19.17487 6066 ft 276 kts 299°
2026-05-04 18:37 47.64128 19.15057 5829 ft 275 kts 299°
2026-05-04 18:38 47.65111 19.12664 5561 ft 274 kts 299°
2026-05-04 18:38 47.66092 19.10238 5267 ft 272 kts 295°
2026-05-04 18:38 47.66574 19.07601 4936 ft 264 kts 266°
2026-05-04 18:38 47.66160 19.05025 4636 ft 255 kts 239°
2026-05-04 18:39 47.65059 19.03026 4368 ft 248 kts 221°
2026-05-04 18:39 47.63795 19.01349 4110 ft 243 kts 219°
2026-05-04 18:39 47.62520 18.99714 3865 ft 237 kts 215°
2026-05-04 18:39 47.61089 18.98731 3798 ft 220 kts 187°
2026-05-04 18:40 47.59649 18.98952 3718 ft 207 kts 156°
2026-05-04 18:40 47.58479 19.00065 3702 ft 193 kts 140°
2026-05-04 18:40 47.57555 19.01444 3797 ft 180 kts 134°
2026-05-04 18:40 47.56795 19.02746 3807 ft 160 kts 133°
2026-05-04 18:41 47.56097 19.03939 3652 ft 145 kts 134°
2026-05-04 18:41 47.55442 19.05033 3480 ft 140 kts 134°
2026-05-04 18:41 47.54795 19.06090 3289 ft 138 kts 135°
2026-05-04 18:41 47.54150 19.07133 3104 ft 137 kts 135°
2026-05-04 18:42 47.53509 19.08163 2922 ft 137 kts 135°
2026-05-04 18:42 47.52861 19.09203 2739 ft 136 kts 135°
2026-05-04 18:42 47.52222 19.10229 2559 ft 136 kts 135°
2026-05-04 18:42 47.51587 19.11249 2381 ft 135 kts 134°
2026-05-04 18:43 47.50944 19.12283 2200 ft 135 kts 134°
2026-05-04 18:43 47.50311 19.13301 2023 ft 135 kts 134°
2026-05-04 18:43 47.49674 19.14328 1844 ft 134 kts 134°
2026-05-04 18:43 47.49044 19.15342 1666 ft 134 kts 134°
2026-05-04 18:44 47.48417 19.16354 1489 ft 134 kts 134°
2026-05-04 18:44 47.47996 19.17033 1370 ft 133 kts 134°
2026-05-04 18:44 47.47163 19.18377 1133 ft 133 kts 133°
2026-05-04 18:44 47.46540 19.19384 957 ft 132 kts 133°
2026-05-04 18:45 47.45924 19.20378 782 ft 131 kts 133°
2026-05-04 18:45 47.45310 19.21370 603 ft 127 kts 133°
2026-05-04 18:45 47.44730 19.22306 456 ft 119 kts 133°
2026-05-04 18:45 47.44174 19.23207 481 ft 112 kts 133°
2026-05-04 18:46 47.43716 19.23938 436 ft 75 kts 132°
2026-05-04 18:46 47.43438 19.24397 433 ft 52 kts 133°
2026-05-04 18:46 47.43229 19.24733 442 ft 34 kts 131°
2026-05-04 18:46 47.43111 19.24941 447 ft 23 kts 114°
2026-05-04 18:47 47.43152 19.25130 454 ft 12 kts 41°
2026-05-04 18:47 47.43155 19.25134 454 ft 0 kts 40°
2026-05-04 18:48 47.43161 19.25142 454 ft 2 kts 40°
2026-05-04 18:48 47.43196 19.25189 456 ft 12 kts 42°
2026-05-04 18:49 47.43277 19.25297 460 ft 15 kts 41°
2026-05-04 18:49 47.43351 19.25397 463 ft 13 kts 42°
2026-05-04 18:49 47.43416 19.25484 466 ft 13 kts 42°
2026-05-04 18:49 47.43494 19.25589 468 ft 16 kts 42°
2026-05-04 18:50 47.43530 19.25717 470 ft 14 kts 117°
2026-05-04 18:50 47.43473 19.25837 471 ft 13 kts 121°
2026-05-04 18:50 47.43434 19.25857 470 ft 7 kts 211°
2026-05-04 18:50 47.43389 19.25803 468 ft 0 kts 223°